Regional Weather Roundup
Issued by NWS

Home | Current Version | Previous Version | Text Only | Print | Product List | Glossary On
Versions: 1 2 3 4 5 6 7 8 9 10 11 12 13 14 15 16 17 18 19 20 21 22 23 24 25 26 27 28 29 30 31 32 33 34 35 36 37 38 39 40 41 42 43 44 45 46 47 48 49 50
000
ASUS44 KOUN 292100
RWROK

WEATHER ROUNDUP FOR OKLAHOMA
NATIONAL WEATHER SERVICE NORMAN OK
300 PM CST THU JAN 29 2015

NOTE: "FAIR" INDICATES FEW OR NO CLOUDS BELOW 12,000 FEET WITH NO
      SIGNIFICANT WEATHER AND/OR OBSTRUCTIONS TO VISIBILITY.

OKZ001>007-009>012-014-015-017-292200-
NORTHWEST OKLAHOMA AND THE PANHANDLE

CITY           SKY/WX    TMP DP  RH WIND       PRES   REMARKS
GAGE           PTSUNNY   52  23  32 N18G26    30.45F
$$

OKZ016-021>023-033>039-044-045-292200-
SOUTHWEST OKLAHOMA

CITY           SKY/WX    TMP DP  RH WIND       PRES   REMARKS
LAWTON/REGL    PTSUNNY   54  29  38 N23       30.41R
FREDERICK      CLOUDY    55  29  36 N21G29    30.39F
CLINTON        CLOUDY    49  28  44 N21       30.45S
HOBART         PTSUNNY   51  29  42 N22G28    30.43S
$$

OKZ018>020-024>031-292200-
CENTRAL OKLAHOMA

CITY           SKY/WX    TMP DP  RH WIND       PRES   REMARKS
OKLAHOMA CITY  PTSUNNY   51  28  41 N23G31    30.40S
OKC/WILEY POST PTSUNNY   51  29  42 N21       30.42R
STILLWATER     SUNNY     53  27  36 N16G25    30.42S
GUTHRIE        PTSUNNY   50  28  42 N8G23     30.43R
$$

OKZ008-013-054>072-292200-
NORTHEAST OKLAHOMA

CITY           SKY/WX    TMP DP  RH WIND       PRES   REMARKS
TULSA          MOSUNNY   52  30  43 N20G25    30.39R
TULSA/JONES    MOSUNNY   52  30  43 NW10G18   30.40R
PONCA CITY     SUNNY     51  28  41 N16G33    30.43S
BARTLESVILLE   MOSUNNY   51  29  42 NW8G24    30.43R
MUSKOGEE       LGT RAIN  50  30  46 N16       30.40R
$$

OKZ032-040>043-046>053-073>077-292200-
SOUTH CENTRAL/SOUTHEAST OKLAHOMA

CITY           SKY/WX    TMP DP  RH WIND       PRES   REMARKS
MCALESTER      PTSUNNY   54  32  43 N16G23    30.37R
$$



USA.gov is the U.S. government's official web portal to all federal, state and local government web resources and services.